Zurück zum Katalog

COSMOS 2276

GLONASS

LostNavigationMEO
NORAD 23043·PAYLOAD·🇷🇺 Russia

Gestartet Apr 11, 1994 von Baikonur Cosmodrome

Loading…

Nächste Überflüge (nächste 24 Stunden)

TLE

VeraltetSource: Space-Track

Epoche: Aug 6, 2026, 03:59 UTC

1 23043U 94021A   26218.16604872 -.00000031  00000-0  00000+0 0  9995
2 23043  63.9570 299.0221 0021210 189.0008 232.8408  2.13099426251305

Verfolge COSMOS 2276 in Echtzeit mit AllMySat

Download on the App Store